Skip Page Navigation
NASA JPL Caltech
NASA Logo - Jet Propulsion Laboratory + View the NASA Portal
+ Center for Near-Earth Object Studies
JPL Home Earth Solar System Stars & Galaxies Technology
JPL Solar System Dynamics
BODIES ORBITS EPHEMERIDES TOOLS PHYSICAL DATA DISCOVERY FAQ SITE MAP
JPL Small-Body Database Browser
Search: [ help ]  
442155 (2010 VA195)
Classification: Inner Main-belt Asteroid          SPK-ID: 2442155
Ephemeris | Orbit Diagram | Orbital Elements | Mission Design | Physical Parameters | Discovery Circumstances ]

[ show orbit diagram ]
Orbital Elements at Epoch 2459200.5 (2020-Dec-17.0) TDB
Reference: JPL 14 (heliocentric ecliptic J2000)
 Element Value Uncertainty (1-sigma)   Units 
e .07280753779033353 6.1045e-08  
a 1.917267882758458 1.0769e-08 au
q 1.777676328930329 1.1897e-07 au
i 19.55290692621599 1.3862e-05 deg
node 242.0846047021823 1.1841e-05 deg
peri 59.8027575064844 0.00010768 deg
M 22.96260445294709 0.00010247 deg
tp 2459138.649777432058
(2020-Oct-16.14977743)
0.000276 TDB
period 969.6670153459581
2.65
8.1694e-06
2.237e-08
d
yr
n .3712614684243529 3.1278e-09 deg/d
Q 2.056859436586587 1.1553e-08 au
  Orbit Determination Parameters
   # obs. used (total)      208  
   data-arc span      5910 days (16.18 yr)  
   first obs. used      2004-05-12  
   last obs. used      2020-07-17  
   planetary ephem.      DE441  
   SB-pert. ephem.      SB441-N16  
   condition code      0  
   norm. resid. RMS      .56039  
   source      ORB  
   producer      Otto Matic  
   solution date      2021-Apr-14 14:43:16  

Additional Information
 Earth MOID = .804133 au 
 Jupiter MOID = 3.05094 au 
 T_jup = 3.855 
[ show covariance matrix ]

Ephemeris | Orbit Diagram | Orbital Elements | Mission Design | Physical Parameters | Discovery Circumstances ]

Physical Parameter Table
Parameter Symbol Value Units Sigma Reference Notes
absolute magnitude H 17.61   n/a E2021B25  

442155 (2010 VA195)          Discovered 2004-May-12 by Siding Spring Survey at Siding Spring
Reference: Last Updated: 2015-09-02
Ephemeris | Orbit Diagram | Orbital Elements | Mission Design | Physical Parameters | Discovery Circumstances ]
ABOUT SSD CREDITS/AWARDS PRIVACY/COPYRIGHT GLOSSARY LINKS
FirstGov 2021-Jun-24 06:17 UT
(server date/time)  
NASA Home Page
Site Manager:   Ryan S. Park
Webmaster  Alan B. Chamberlin